EST,Max TemperatureF,Mean TemperatureF,Min TemperatureF,Max Dew PointF,MeanDew PointF,Min DewpointF,Max Humidity, Mean Humidity, Min Humidity, Max Sea Level PressureIn, Mean Sea Level PressureIn, Min Sea Level PressureIn, Max VisibilityMiles, Mean VisibilityMiles, Min VisibilityMiles, Max Wind SpeedMPH, Mean Wind SpeedMPH, Max Gust SpeedMPH,PrecipitationIn, CloudCover, Events, WindDirDegrees
2013-11-1,61,54,47,57,47,42,93,84,74,29.65,29.40,29.04,10,9,2,36,15,45,0.15,8,Rain,240
2013-11-2,47,42,36,45,38,29,93,82,70,30.14,29.84,29.64,10,10,10,20,10,24,0.06,8,Rain,360
2013-11-3,45,37,29,35,30,26,85,72,58,30.46,30.35,30.17,10,10,10,14,7,16,0.00,5,,90
2013-11-4,50,41,31,33,28,22,82,59,36,30.48,30.39,30.26,10,10,10,21,12,25,0.00,1,,145
2013-11-5,60,53,45,46,43,34,83,72,60,30.33,30.26,30.12,10,10,10,15,9,21,0.00,7,,182
2013-11-6,57,49,40,54,47,34,93,80,66,30.09,29.86,29.71,10,8,2,28,14,35,0.26,7,Rain,214
2013-11-7,42,39,35,35,29,23,85,67,49,30.14,30.09,30.02,10,10,10,20,10,24,0.17,8,,279
2013-11-8,45,36,27,29,26,24,85,67,49,30.27,30.21,30.13,10,10,10,14,8,17,0.00,3,,241
2013-11-9,51,44,37,40,34,28,71,62,52,30.13,29.87,29.74,10,10,10,28,16,38,T,7,Rain,221
2013-11-10,48,41,34,34,29,26,70,58,45,30.26,30.11,29.89,10,10,10,26,13,33,T,5,Rain,274
2013-11-11,42,34,26,37,29,15,92,75,58,30.37,30.12,30.03,10,8,2,25,12,30,0.09,7,Rain-Snow,289
2013-11-12,36,28,20,20,16,11,84,63,41,30.57,30.52,30.39,10,10,10,22,10,29,0.00,3,,300
2013-11-13,43,32,21,23,18,13,84,60,36,30.53,30.32,30.08,10,10,10,31,17,38,0.00,0,,220
2013-11-14,49,41,33,27,25,22,64,53,42,30.07,30.00,29.93,10,10,10,29,17,36,0.00,1,,224
2013-11-15,49,44,39,33,28,24,59,52,45,30.04,29.99,29.95,10,10,10,21,11,26,T,6,Rain,215
2013-11-16,56,46,36,52,42,28,89,74,59,30.07,29.91,29.72,10,10,5,23,13,30,0.11,5,Rain,172
2013-11-17,63,54,44,58,53,39,93,85,77,29.71,29.46,29.11,10,8,1,43,18,62,0.93,8,Rain,194
2013-11-18,46,41,36,41,29,22,89,73,56,30.13,29.73,29.35,10,10,10,37,21,47,0.01,8,Rain,270
2013-11-19,40,34,28,25,22,19,78,63,48,30.43,30.34,30.15,10,10,10,18,7,26,0.00,3,,12
2013-11-20,46,36,25,30,26,23,84,63,42,30.45,30.37,30.25,10,10,10,18,9,22,0.00,0,,138
2013-11-21,50,44,37,45,39,28,100,82,64,30.29,30.21,30.17,10,8,4,13,5,17,0.08,8,Rain,179
2013-11-22,45,35,24,45,35,20,100,82,63,30.39,30.22,30.13,10,6,2,25,10,31,0.02,6,Rain-Snow,289
2013-11-23,29,23,17,22,14,5,81,60,38,30.54,30.37,30.26,10,9,1,30,16,38,T,4,Snow,299
2013-11-24,26,20,14,13,9,5,80,61,42,30.61,30.53,30.36,10,10,10,18,11,22,T,3,,269
2013-11-25,33,28,22,29,16,1,92,64,35,30.34,30.11,29.99,10,7,0,30,18,37,T,6,Rain-Snow,217
2013-11-26,33,30,27,29,27,19,92,81,69,30.06,29.99,29.93,10,6,2,22,10,26,0.01,8,Snow,235
2013-11-27,27,23,18,16,11,7,80,61,42,30.22,30.06,29.98,10,10,10,25,13,32,0.00,3,,322
2013-11-28,25,20,15,22,18,10,92,80,67,30.46,30.32,30.22,10,4,0,10,4,14,0.05,7,Fog-Snow,157
2013-11-29,25,19,12,21,16,9,96,89,81,30.69,30.58,30.43,9,4,0,8,4,10,0.00,5,Fog,293
2013-11-30,44,34,24,29,25,20,81,69,57,30.55,30.26,30.06,10,10,10,16,9,21,0.00,3,,185